Weather in Dar es Salaam

Tanzania     6°46′39″S   39°13′57″E
temp.,
°C
wind,
m/s
gust,
m/s
humid.,
%
clouds,
%
prec.,
mm/h
press.,
hPa
HPBL,
m
14 april, wed
wed1400:00+23ssw3995100 0.0 1014412
03:00+23sw499571 0.0 1012434
06:00+22ssw41093100 0.1 1013384
09:00+25ssw5983100 0.8 1015525
12:00+28s4674100 0.6 1013955
15:00+28sse4575100 1.9 1010925
18:00+26sse4780100 0.1 1010613
21:00+25s498698 0.4 1013562
15 april, thu
thu1500:00+23ssw2797100 4.6 1013198
03:00+23sw3897100 10.9 1011276
06:00+23ssw389623 1.9 1012268
09:00+26ssw368148 1.9 1013464
12:00+29s4467100 0.6 10121188
15:00+28sse347899 4.0 1009861
18:00+25sse4889100 3.9 1010410
21:00+24s389497 5.2 1012315
16 april, fri
fri1600:00+23s279699 3.8 1012232
03:00+23ssw2496100 11.8 1010133
06:00+23ssw369797 5.0 1012214
09:00+25ssw2493100 7.4 1014181
12:00+27se238377 4.7 1012752
15:00+28ese2369100 6.3 1010859
18:00+26ese348098 0.1 1011257
21:00+24s2581100 0.1 1013184
17 april, sat
sat1700:00+23ssw3594100 0.9 1012167
03:00+23s4894100 2.3 1011360
06:00+23ssw3798100 4.5 1012347
09:00+24s2695100 8.9 1015343
12:00+23sse3797100 5.3 1014405
15:00+23sse51096100 10.4 1012629
18:00+23sse31197100 6.9 1013588
21:00+23s3109675 10.1 1015421
18 april, sun
sun1800:00+23s51196100 5.2 1015624
03:00+23ssw41197100 10.7 1012601
06:00+23ssw51393100 1.1 1014695
09:00+24ssw6128599 1.2 1016884
12:00+23ssw61186100 0.6 1015772
15:00+25s51085100 2.8 1013987
18:00+24s41081100 0.4 1014625
21:00+22ssw31294100 2.0 1016627